Pereira, Colombia

4:25 AM -05 on July 21, 2017 (GMT -0500)
Matecana

Weather History for SKPE - December, 2012

Change the Weather History Date:

Wednesday, December 5, 2012

  Actual Average Record
Temperature  
Mean Temperature 72 °F -  
Max Temperature 79 °F 81 °F 84 °F (2015)
Min Temperature 64 °F 61 °F 60 °F (2007)
Cooling Degree Days 6    
Growing Degree Days 22 (Base 50)    
Moisture  
Dew Point 65 °F    
Average Humidity 81    
Maximum Humidity 94    
Minimum Humidity 61    
Precipitation  
Precipitation 0.04 in 0.20 in - ()
Sea Level Pressure  
Sea Level Pressure 30.11 in    
Wind  
Wind Speed 3 mph ()    
Max Wind Speed 7 mph    
Max Gust Speed -    
Visibility 6.6 miles    
Events Fog , Rain    
Averages and records for this station are not official NWS values.
T = Trace of Precipitation, MM = Missing Value Source: Averaged Metar Reports

Daily Weather History Graph

Daily Weather History Graph

Search for Another Location

Airport or City:

Trip Planner

Search our weather history database for the weather conditions in past years. The results will help you decide how hot, cold, wet, or windy it might be!

Date:

Astronomy

Dec. 05, 2012 Rise Set
Actual Time 5:58 AM -05 5:49 PM -05
Civil Twilight 5:35 AM -05 6:12 PM -05
Nautical Twilight 5:09 AM -05 6:38 PM -05
Astronomical Twilight 4:43 AM -05 7:04 PM -05
Moon 11:35 PM -05 (12/5) 11:14 AM -05 (12/5)
Length of Visible Light 12h 36m
Length of Day
11h 51m
Waning Gibbous, 60% of the Moon is Illuminated
Dec 5
Waning Gibbous
Dec 6
Last Quarter
Dec 13
New
Dec 20
First Quarter
Dec 28
Full

Hourly Weather History & Observations

Time (-05) Temp. Dew Point Humidity Pressure Visibility Wind Dir Wind Speed Gust Speed Precip Events Conditions
12:00 AM 68.0 °F 62.6 °F 83% 30.16 in 6.2 mi Variable 2.3 mph - N/A   Scattered Clouds
1:00 AM 68.0 °F 62.6 °F 83% 30.14 in 6.2 mi Variable 2.3 mph - N/A   Scattered Clouds
5:00 AM 64.4 °F 62.6 °F 94% 30.10 in 6.2 mi Variable 2.3 mph - N/A   Mostly Cloudy
6:00 AM 66.2 °F 64.4 °F 94% 30.13 in 3.1 mi Variable 2.3 mph - N/A Fog Patches of Fog
7:00 AM 65 °F 64 °F 93%  in 10 mi Calm Calm - -   Haze
7:00 AM 66.2 °F 64.4 °F 94% 30.14 in 6.2 mi Calm Calm - N/A   Scattered Clouds
8:00 AM 68.0 °F 64.4 °F 88% 30.16 in 6.2 mi Variable 2.3 mph - N/A   Scattered Clouds
9:00 AM 71.6 °F 64.4 °F 78% 30.17 in 6.2 mi SSW 3.5 mph - N/A   Scattered Clouds
10:00 AM 71 °F 66 °F 79%  in 10 mi NW 4.5 mph - -   Haze
10:00 AM 71.6 °F 66.2 °F 83% 30.18 in 6.2 mi NW 3.5 mph - N/A   Scattered Clouds
11:00 AM 73.4 °F 66.2 °F 78% 30.15 in 6.2 mi Variable 2.3 mph - N/A   Mostly Cloudy
12:00 PM 77.0 °F 66.2 °F 69% 30.12 in 6.2 mi SSW 4.6 mph - N/A   Mostly Cloudy
1:00 PM 76 °F 67 °F 65%  in 10 mi South 4.5 mph - -   Haze
1:00 PM 77.0 °F 66.2 °F 69% 30.09 in 6.2 mi South 3.5 mph - N/A   Scattered Clouds
2:00 PM 78.8 °F 64.4 °F 61% 30.06 in 6.2 mi East 3.5 mph - N/A   Scattered Clouds
3:00 PM 71.6 °F 66.2 °F 83% 30.03 in 6.2 mi ENE 4.6 mph - N/A Rain Light Rain
4:00 PM 71 °F 65 °F 76%  in 7 mi East 4.5 mph - - Rain Light Rain
4:00 PM 71.6 °F 64.4 °F 78% 30.03 in 6.2 mi East 5.8 mph - N/A   Scattered Clouds
5:00 PM 71.6 °F 64.4 °F 78% 30.04 in - North - - N/A   Mostly Cloudy
6:00 PM 71.6 °F 64.4 °F 78% 30.05 in 6.2 mi ESE 3.5 mph - N/A   Scattered Clouds
7:00 PM 70 °F 65 °F 79%  in 7 mi East 4.5 mph - -   Haze
7:00 PM 69.8 °F 64.4 °F 83% 30.06 in 6.2 mi East 3.5 mph - N/A   Scattered Clouds
8:00 PM 68.0 °F 62.6 °F 83% 30.09 in 6.2 mi Variable 2.3 mph - N/A   Scattered Clouds
9:00 PM 68.0 °F 62.6 °F 83% 30.12 in 6.2 mi East 6.9 mph - N/A   Scattered Clouds
10:00 PM 68 °F 64 °F 84%  in 6 mi ENE 4.5 mph - -   Overcast
10:00 PM 68.0 °F 64.4 °F 88% 30.15 in 6.2 mi ENE 3.5 mph - N/A   Scattered Clouds
11:00 PM 66.2 °F 62.6 °F 88% 30.13 in 6.2 mi ENE 5.8 mph - N/A   Light Drizzle